#timestamp,LO_Frequency,Hit 
1498942815.5,286047094.4,N
1498942835.3,286047096.5,N
1498942855.1,286047097.8,N
1498942875.9,286047098.0,N
1498942895.7,286047096.7,N
1498942915.5,286047098.4,N
1498942935.4,286047100.1,N
1498942955.2,286047097.8,N
1498942975.0,286047096.5,N
1498942975.9,286047096.5,N
1498942995.8,286047090.0,N
1498943015.6,286047092.1,N
1498943035.4,286047091.4,N
1498943055.3,286047091.1,N
1498943075.1,286047089.9,N
1498943076.0,286047089.9,N
1498943095.8,286047092.4,N
1498943115.7,286047089.1,N
1498943135.5,286047085.0,N
1498943155.3,286047087.1,N
1498943175.1,286047089.9,N
1498943195.9,286047093.9,N
1498943215.7,286047089.1,N
1498943235.5,286047092.7,N
1498943255.4,286047097.4,N
1498943275.2,286047096.9,N
1498943295.0,286047094.6,N
1498943295.9,286047094.6,N
1498943315.8,286047098.4,N
1498943335.6,286047096.1,N
1498943355.4,286047096.4,N
1498943375.3,286047095.8,N
1498943395.1,286047096.0,N
1498943396.0,286047096.0,N
1498943415.8,286047098.1,N
1498943435.7,286047101.5,N
1498943455.5,286047099.5,N
1498943475.3,286047095.3,N
1498943495.2,286047098.8,N
1498943515.9,286047101.9,N
1498943535.7,286047103.0,N
1498943555.5,286047100.1,N
1498943575.4,286047100.2,N
1498943595.2,286047103.4,N
1498943615.0,286047104.9,N
1498943615.9,286047104.9,N
1498943635.8,286047103.3,N
1498943655.6,286047098.0,N
1498943675.4,286047097.5,N
1498943695.3,286047105.2,N
1498943715.1,286047105.8,N
1498943716.0,286047105.8,N
1498943735.8,286047108.6,N
1498943755.7,286047109.1,N
1498943775.5,286047112.5,N
1498943795.3,286047111.9,N
1498943815.2,286047106.9,N
1498943835.9,286047105.1,N
1498943855.7,286047104.4,N
1498943875.6,286047102.2,N
1498943895.4,286047099.5,N
1498943915.2,286047097.9,N
1498943935.0,286047099.5,N
1498943936.0,286047099.5,N
1498943955.8,286047104.4,N
1498943975.6,286047107.3,N
1498943995.4,286047111.5,N
1498944015.3,286047109.3,N
1498944035.1,286047110.3,N
1498944055.8,286047106.8,N
1498944075.7,286047104.3,N
1498944095.5,286047108.9,N
1498944115.3,286047114.0,N
1498944135.2,286047116.2,N
1498944155.9,286047118.4,N
1498944175.7,286047116.2,N
1498944195.6,286047115.6,N
1498944215.4,286047119.2,N
1498944235.2,286047119.0,N
1498944255.1,286047115.3,N
1498944256.0,286047115.3,N
1498944275.8,286047112.1,N
1498944295.6,286047109.7,N
1498944315.4,286047104.2,N
1498944335.3,286047103.7,N
1498944355.1,286047103.9,N
1498944375.8,286047111.3,N
1498944395.7,286047117.3,N
1498944415.5,286047115.0,N
1498944435.3,286047117.9,N
1498944455.2,286047119.8,N
1498944475.9,286047116.5,N
1498944495.7,286047115.9,N
1498944515.6,286047110.4,N
1498944535.4,286047107.9,N
1498944555.2,286047111.6,N
1498944575.1,286047114.5,N
1498944576.0,286047114.5,N
1498944595.8,286047108.8,N
1498944615.6,286047113.1,N
1498944635.4,286047113.9,N
1498944655.3,286047119.0,N
1498944675.1,286047120.1,N
1498944695.8,286047120.5,N
1498944715.7,286047120.8,N
1498944735.5,286047120.5,N
1498944755.3,286047120.2,N
1498944775.2,286047118.6,N
1498944795.9,286047116.5,N
1498944815.7,286047121.0,N
1498944835.6,286047122.5,N
1498944855.4,286047118.0,N
1498944875.2,286047116.2,N
1498944895.1,286047111.9,N
1498944896.0,286047111.9,N
1498944915.8,286047109.6,N
1498944935.6,286047109.5,N
1498944955.4,286047111.7,N
1498944975.3,286047113.0,N
1498944995.1,286047108.7,N
1498945015.8,286047108.0,N
1498945035.7,286047107.1,N
1498945055.5,286047110.2,N
1498945075.3,286047116.2,N
1498945095.2,286047113.4,N
1498945115.9,286047112.8,N
1498945135.7,286047113.7,N
1498945155.6,286047112.2,N
1498945175.4,286047108.9,N
1498945195.2,286047109.4,N
1498945215.0,286047114.7,N
1498945216.0,286047114.7,N
1498945235.8,286047118.0,N
1498945255.6,286047116.4,N
1498945275.4,286047112.5,N
1498945295.3,286047110.2,N
1498945315.1,286047112.3,N
1498945335.8,286047109.1,N
1498945355.7,286047107.0,N
1498945375.5,286047107.2,N
1498945395.3,286047114.1,N
1498945415.2,286047109.4,N
1498945435.9,286047108.1,N
1498945455.7,286047108.3,N
1498945475.6,286047106.5,N
1498945495.4,286047106.2,N
1498945515.2,286047111.4,N
1498945535.0,286047115.8,N
1498945536.0,286047115.8,N
1498945555.8,286047113.6,N
1498945575.6,286047115.5,N
1498945595.4,286047115.1,N
1498945615.3,286047115.6,N
1498945635.1,286047114.4,N
1498945655.8,286047117.9,N
1498945675.7,286047114.2,N
1498945695.5,286047110.2,N
1498945715.3,286047112.4,N
1498945735.2,286047115.4,N
1498945755.9,286047119.3,N
1498945775.7,286047115.1,N
1498945795.6,286047112.4,N
1498945815.4,286047112.7,N
1498945835.2,286047111.9,N
1498945855.0,286047112.7,N
1498945856.0,286047112.7,N
1498945875.8,286047115.7,N
1498945895.6,286047118.5,N
1498945915.4,286047120.6,N
1498945935.3,286047117.2,N
1498945955.1,286047115.7,N
1498945975.8,286047117.2,N
1498945995.7,286047116.0,N
1498946015.5,286047117.0,N
1498946035.3,286047117.1,N
1498946055.2,286047121.1,N
1498946075.9,286047118.7,N
1498946095.7,286047122.6,N
1498946115.6,286047119.9,N
1498946135.4,286047121.4,N
1498946155.2,286047127.3,N
1498946175.0,286047123.4,N
1498946176.0,286047123.4,N
1498946195.8,286047118.2,N
1498946215.6,286047121.0,N
1498946235.4,286047119.2,N
1498946255.3,286047118.0,N
1498946275.1,286047116.6,N
1498946295.8,286047117.1,N
1498946315.7,286047116.4,N
1498946335.5,286047115.6,N
1498946355.3,286047115.9,N
1498946375.2,286047116.3,N
1498946395.9,286047115.7,N
